Regional Weather Roundup
Issued by NWS

Home | Current Version | Previous Version | Graphics & Text | Print | Product List | Glossary On
Versions: 1 2 3 4 5 6 7 8 9 10 11 12 13 14 15 16 17 18 19 20 21 22 23 24 25 26 27 28 29 30 31 32 33 34 35 36 37 38 39 40 41 42 43 44 45 46 47 48 49 50
000
ASUS43 KBIS 301510
RWRND

NORTH DAKOTA REGIONAL WEATHER ROUNDUP
NATIONAL WEATHER SERVICE BISMARCK ND
1000 AM CDT TUE SEP 30 2014

NOTE: "FAIR" INDICATES FEW OR NO CLOUDS BELOW 12,000 FEET WITH NO
SIGNIFICANT WEATHER AND/OR OBSTRUCTIONS TO VISIBILITY.


NDZ001>003-009>011-017-301600-
NORTHWEST NORTH DAKOTA

CITY           SKY/WX    TMP DP  RH WIND       PRES   REMARKS
WILLISTON      CLOUDY    54  51  90 SE5       29.68F
MINOT          FOG       49  48  97 E13       29.74F VSB 1
MINOT AFB      CLOUDY    48  48 100 E17       29.73F FOG
$$

NDZ018>021-031>035-040>046-301600-
SOUTHWEST NORTH DAKOTA

CITY           SKY/WX    TMP DP  RH WIND       PRES   REMARKS
BISMARCK       CLOUDY    54  50  86 E20G25    29.69F
DICKINSON      LGT RAIN  51  50  96 E14       29.63S
GARRISON         N/A     52  50  93 SE14      29.71F
HETTINGER ARPT FOG       52  50  93 E14       29.60F VSB 1/2
$$

NDZ004>008-012>016-024-026-027-054-301600-
NORTHEAST NORTH DAKOTA

CITY           SKY/WX    TMP DP  RH WIND       PRES   REMARKS
GRAND FORKS    CLOUDY    46  42  86 SE15      29.92F
GRND FRKS AFB  CLOUDY    44  44  99 SE13      29.91F
DEVILS LAKE    CLOUDY    46  39  76 SE18G25   29.81F
$$

NDZ022-023-025-028>030-036>039-047>053-301600-
SOUTHEAST NORTH DAKOTA

CITY           SKY/WX    TMP DP  RH WIND       PRES   REMARKS
FARGO          PTSUNNY   50  43  77 SE18G24   29.90F
JAMESTOWN      CLOUDY    47  44  90 E16G23    29.80R
$$




USA.gov is the U.S. government's official web portal to all federal, state and local government web resources and services.